{"data":{"norad_id":58715,"epoch":"2026-05-25T04:17:12.638400Z","epoch_age_seconds":49730,"freshness":"FRESH","line1":"1 58715U 24002L   26145.17861850  .00157254  00000+0  50090-2 0  9997","line2":"2 58715  53.1603 234.8217 0002527  73.8179 286.3101 15.31469765133728","mean_motion":15.31469765,"eccentricity":0.0002527,"inclination_deg":53.1603,"raan_deg":234.8217,"arg_perigee_deg":73.8179,"mean_anomaly_deg":286.3101,"bstar":0.005009,"rev_number":13372,"period_min":94.027321525345,"perigee_km":469.69551508961,"apogee_km":473.15728443185,"semimajor_km":6849.5633997607,"source":"CELESTRAK","updated_at":"2026-05-25T13:38:18.716800Z"}}